GW5264 Weather Reports


time (UTC)temp
C
wind
direction
speed
KPH
gust
KPH
rain 1hr
cm
rain 24hr
cm
rain mn
cm
humidity
%
barometer
mb
20260510164643 26 334 0.0 3.2 0.00 0.00 0.00 44 1015.9
20260510164140 26 334 3.2 4.8 0.00 0.00 0.00 46 1016.0
20260510163635 26 69 9.7 12.9 0.00 0.00 0.00 42 1016.2
20260510163131 25 150 0.0 3.2 0.00 0.00 0.00 47 1016.2
20260510162625 25 150 1.6 4.8 0.00 0.00 0.00 47 1016.3
20260510162122 25 50 6.4 12.9 0.00 0.00 0.00 44 1016.4
20260510161618 26 119 0.0 1.6 0.00 0.00 0.00 46 1016.7
20260510161115 25 233 1.6 3.2 0.00 0.00 0.00 47 1016.4
20260510160612 25 242 3.2 4.8 0.00 0.00 0.00 46 1016.7
20260510160112 25 194 0.0 1.6 0.00 0.00 0.00 46 1017.0
20260510155609 23 293 3.2 4.8 0.00 0.00 0.00 47 1017.0
20260510155105 24 295 3.2 4.8 0.00 0.00 0.00 50 1017.1
20260510154600 23 110 1.6 4.8 0.00 0.00 0.00 51 1017.1
20260510154056 23 151 3.2 4.8 0.00 0.00 0.00 51 1017.1
20260510153551 23 268 3.2 4.8 0.00 0.00 0.00 51 1017.3
20260510153048 23 174 9.7 12.9 0.00 0.00 0.00 50 1017.2
20260510152545 22 162 1.6 6.4 0.00 0.00 0.00 52 1017.2
20260510152041 22 100 3.2 6.4 0.00 0.00 0.00 56 1017.1
20260510151538 23 180 6.4 9.7 0.00 0.00 0.00 51 1017.1
20260510151036 22 131 3.2 9.7 0.00 0.00 0.00 58 1017.1
20260510150530 21 77 4.8 6.4 0.00 0.00 0.00 63 1017.2
20260510150027 21 290 1.6 3.2 0.00 0.00 0.00 67 1017.2
20260510145523 20 84 3.2 3.2 0.00 0.00 0.00 75 1017.1
20260510145020 20 93 1.6 3.2 0.00 0.00 0.00 75 1017.3
20260510144517 20 83 1.6 3.2 0.00 0.00 0.00 75 1017.1
20260510144013 19 95 0.0 1.6 0.00 0.00 0.00 75 1017.1
20260510143508 18 94 1.6 3.2 0.00 0.00 0.00 76 1017.2
20260510143005 18 68 0.0 0.0 0.00 0.00 0.00 81 1017.2
20260510142502 18 95 0.0 0.0 0.00 0.00 0.00 80 1017.3
20260510141958 17 93 0.0 0.0 0.00 0.00 0.00 81 1017.2
20260510141455 17 113 0.0 0.0 0.00 0.00 0.00 84 1017.1
20260510140952 16 113 0.0 0.0 0.00 0.00 0.00 84 1017.1
20260510140448 16 116 0.0 0.0 0.00 0.00 0.00 88 1016.9
20260510135947 15 75 0.0 0.0 0.00 0.00 0.00 90 1017.2
20260510135443 15 81 0.0 0.0 0.00 0.00 0.00 89 1017.2
20260510134941 14 93 0.0 0.0 0.00 0.00 0.00 91 1017.3
20260510134438 14 95 0.0 0.0 0.00 0.00 0.00 90 1017.1
20260510133935 14 73 0.0 0.0 0.00 0.00 0.00 90 1017.4
20260510133430 13 78 0.0 0.0 0.00 0.00 0.00 93 1017.4
20260510132925 12 81 0.0 0.0 0.00 0.00 0.00 96 1017.5
20260510132423 12 67 0.0 0.0 0.00 0.00 0.00 96 1017.4
20260510131920 12 81 0.0 0.0 0.00 0.00 0.00 97 1017.5
20260510131418 11 306 0.0 0.0 0.00 0.00 0.00 99 1017.6
20260510130914 11 306 0.0 0.0 0.00 0.00 0.00 99 1017.7
20260510130412 11 306 0.0 0.0 0.00 0.00 0.00 99 1017.9
20260510125908 11 332 0.0 0.0 0.00 0.00 0.00 99 1017.6
20260510125404 10 332 0.0 0.0 0.00 0.00 0.00 99 1017.8
20260510124901 10 332 0.0 0.0 0.00 0.00 0.00 99 1017.7
20260510124358 10 332 0.0 0.0 0.00 0.00 0.00 99 1017.7
20260510123854 10 333 0.0 0.0 0.00 0.00 0.00 99 1017.8
20260510123349 9 333 0.0 0.0 0.00 0.00 0.00 99 1017.7
20260510122846 9 333 0.0 0.0 0.00 0.00 0.00 99 1017.6
20260510122341 9 11 0.0 0.0 0.00 0.00 0.00 99 1017.6
20260510121838 9 11 0.0 0.0 0.00 0.00 0.00 99 1017.7
20260510121336 9 11 0.0 0.0 0.00 0.00 0.00 99 1017.7
20260510120833 9 11 0.0 0.0 0.00 0.00 0.00 99 1017.6
20260510120330 8 11 0.0 0.0 0.00 0.00 0.00 99 1017.7
20260510115825 8 11 0.0 0.0 0.00 0.00 0.00 99 1017.5
20260510115323 8 10 0.0 0.0 0.00 0.00 0.00 99 1017.5
20260510114819 8 10 0.0 0.0 0.00 0.00 0.00 99 1017.3
20260510114316 8 11 0.0 0.0 0.00 0.00 0.00 99 1017.2
20260510113811 8 11 0.0 0.0 0.00 0.00 0.00 99 1017.2
20260510113308 8 11 0.0 0.0 0.00 0.00 0.00 99 1017.0
20260510112805 8 11 0.0 0.0 0.00 0.00 0.00 99 1017.3
20260510112305 7 11 0.0 0.0 0.00 0.00 0.00 99 1017.1
20260510111757 7 11 0.0 0.0 0.00 0.00 0.00 99 1017.0
20260510111254 7 11 0.0 0.0 0.00 0.00 0.00 99 1017.1
20260510110753 8 11 0.0 0.0 0.00 0.00 0.00 99 1017.1
20260510110252 7 11 0.0 0.0 0.00 0.00 0.00 99 1016.9
20260510105752 7 10 0.0 0.0 0.00 0.00 0.00 99 1017.0
20260510105247 7 11 0.0 0.0 0.00 0.00 0.00 99 1016.6
20260510104743 7 11 0.0 0.0 0.00 0.00 0.00 99 1016.7
20260510104241 7 11 0.0 0.0 0.00 0.00 0.00 99 1016.7
20260510103737 7 11 0.0 0.0 0.00 0.00 0.00 99 1016.7
20260510103234 7 11 0.0 0.0 0.00 0.00 0.00 99 1016.3
20260510102734 7 11 0.0 0.0 0.00 0.00 0.00 99 1016.4
20260510102230 7 11 0.0 0.0 0.00 0.00 0.00 99 1016.3
20260510101728 7 11 0.0 0.0 0.00 0.00 0.00 99 1016.2
20260510101226 7 11 0.0 0.0 0.00 0.00 0.00 99 1016.2
20260510100721 7 11 0.0 0.0 0.00 0.00 0.00 99 1016.2
20260510100220 7 11 0.0 0.0 0.00 0.00 0.00 99 1016.1
20260510095715 7 11 0.0 0.0 0.00 0.00 0.00 99 1016.0
20260510095210 7 11 0.0 0.0 0.00 0.00 0.00 99 1015.8
20260510094709 7 11 0.0 0.0 0.00 0.00 0.00 99 1015.8
20260510094205 8 11 0.0 0.0 0.00 0.00 0.00 99 1015.9
20260510093700 8 11 0.0 0.0 0.00 0.00 0.00 99 1015.8
20260510093158 8 11 0.0 0.0 0.00 0.00 0.00 99 1015.7
20260510092654 8 11 0.0 0.0 0.00 0.00 0.00 99 1015.7
20260510092150 8 11 0.0 0.0 0.00 0.00 0.00 99 1015.6
20260510091646 8 11 0.0 0.0 0.00 0.00 0.00 99 1015.7
20260510091142 8 11 0.0 0.0 0.00 0.00 0.00 99 1015.6
20260510090640 8 11 0.0 0.0 0.00 0.00 0.00 99 1015.6
20260510090136 8 11 0.0 0.0 0.00 0.00 0.00 99 1015.5
20260510085631 8 11 0.0 0.0 0.00 0.00 0.00 99 1015.5
20260510085126 8 11 0.0 0.0 0.00 0.00 0.00 99 1015.5
20260510084623 8 11 0.0 0.0 0.00 0.00 0.00 99 1015.4
20260510084120 8 11 0.0 0.0 0.00 0.00 0.00 99 1015.3
20260510083616 8 11 0.0 0.0 0.00 0.00 0.00 99 1015.5
20260510083113 8 11 0.0 0.0 0.00 0.00 0.00 99 1015.5
20260510082609 8 11 0.0 0.0 0.00 0.00 0.00 99 1015.4
20260510082105 8 11 0.0 0.0 0.00 0.00 0.00 99 1015.6
20260510081600 8 11 0.0 0.0 0.00 0.00 0.00 99 1015.3
20260510081056 8 11 0.0 0.0 0.00 0.00 0.00 99 1015.3
20260510080555 8 11 0.0 0.0 0.00 0.00 0.00 99 1015.2
20260510080052 8 11 0.0 0.0 0.00 0.00 0.00 99 1015.3
20260510075550 8 11 0.0 0.0 0.00 0.00 0.00 99 1015.2
20260510075046 8 11 0.0 0.0 0.00 0.00 0.00 99 1015.2
20260510074544 8 11 0.0 0.0 0.00 0.00 0.00 99 1015.0
20260510074039 8 11 0.0 0.0 0.00 0.00 0.00 99 1015.0
20260510073535 8 11 0.0 0.0 0.00 0.00 0.00 99 1015.0
20260510073033 8 11 0.0 0.0 0.00 0.00 0.00 99 1015.1
20260510072529 8 11 0.0 0.0 0.00 0.00 0.00 99 1015.0
20260510072025 8 11 0.0 0.0 0.00 0.00 0.00 99 1015.0
20260510071521 8 11 0.0 0.0 0.00 0.00 0.00 99 1015.1
20260510071020 8 11 0.0 0.0 0.00 0.00 0.00 99 1014.9
20260510070516 8 11 0.0 0.0 0.00 0.00 0.00 99 1014.9
20260510070013 8 11 0.0 0.0 0.00 0.00 0.00 99 1014.8
20260510065509 8 11 0.0 0.0 0.00 0.00 0.00 99 1014.9
20260510065005 8 11 0.0 0.0 0.00 0.00 0.00 99 1014.8
20260510064502 8 11 0.0 0.0 0.00 0.00 0.00 99 1015.0
20260510063959 8 11 0.0 0.0 0.00 0.00 0.00 99 1015.1
20260510063455 8 11 0.0 0.0 0.00 0.00 0.00 99 1015.1
20260510062953 8 11 0.0 0.0 0.00 0.00 0.00 99 1015.1
20260510062448 8 11 0.0 0.0 0.00 0.00 0.00 99 1015.0
20260510061944 9 11 0.0 0.0 0.00 0.00 0.00 99 1015.0
20260510061441 9 11 0.0 0.0 0.00 0.00 0.00 99 1014.9
20260510060937 9 11 0.0 0.0 0.00 0.00 0.00 99 1015.1
20260510060434 9 11 0.0 0.0 0.00 0.00 0.00 99 1015.1
20260510055930 9 11 0.0 0.0 0.00 0.00 0.00 99 1015.0
20260510055426 9 11 0.0 0.0 0.00 0.00 0.00 99 1015.0
20260510054924 9 11 0.0 0.0 0.00 0.00 0.00 99 1014.9
20260510054420 9 11 0.0 0.0 0.00 0.00 0.00 99 1015.0
20260510053915 9 11 0.0 0.0 0.00 0.00 0.00 99 1014.9
20260510053411 9 11 0.0 0.0 0.00 0.00 0.00 99 1015.1
20260510052907 9 11 0.0 0.0 0.00 0.00 0.00 99 1014.9
20260510052403 9 11 0.0 0.0 0.00 0.00 0.00 99 1015.1
20260510051859 9 11 0.0 0.0 0.00 0.00 0.00 99 1015.0
20260510051355 9 11 0.0 0.0 0.00 0.00 0.00 99 1015.1
20260510050852 9 10 0.0 0.0 0.00 0.00 0.00 99 1015.2
20260510050349 9 10 0.0 0.0 0.00 0.00 0.00 99 1015.1
20260510045846 10 11 0.0 0.0 0.00 0.00 0.00 99 1015.3
20260510045343 10 11 0.0 0.0 0.00 0.00 0.00 99 1015.2
20260510044840 10 11 0.0 0.0 0.00 0.00 0.00 99 1015.3
20260510044337 10 11 0.0 0.0 0.00 0.00 0.00 99 1015.2
20260510043833 10 11 0.0 0.0 0.00 0.00 0.00 99 1015.3
20260510043329 10 18 0.0 0.0 0.00 0.00 0.00 99 1015.2
20260510042827 10 18 0.0 0.0 0.00 0.00 0.00 99 1015.1
20260510042323 10 18 0.0 0.0 0.00 0.00 0.00 99 1015.0
20260510041819 10 18 0.0 0.0 0.00 0.00 0.00 99 1015.3
20260510041317 10 18 0.0 0.0 0.00 0.00 0.00 99 1015.0
20260510040814 10 18 0.0 0.0 0.00 0.00 0.00 99 1015.2
20260510040310 10 18 0.0 0.0 0.00 0.00 0.00 99 1015.1
20260510035806 10 18 0.0 0.0 0.00 0.00 0.00 99 1015.1
20260510035306 10 18 0.0 0.0 0.00 0.00 0.00 99 1015.1
20260510034758 10 18 0.0 0.0 0.00 0.00 0.00 99 1014.9
20260510034256 10 18 0.0 0.0 0.00 0.00 0.00 99 1014.8
20260510033752 10 18 0.0 0.0 0.00 0.00 0.00 99 1014.7
20260510033250 10 18 0.0 0.0 0.00 0.00 0.00 99 1014.6
20260510032746 11 64 0.0 0.0 0.00 0.00 0.00 99 1014.7
20260510032242 11 64 0.0 0.0 0.00 0.00 0.00 99 1014.6
20260510031737 11 64 0.0 0.0 0.00 0.00 0.00 99 1014.5
20260510031233 11 64 0.0 0.0 0.00 0.00 0.00 98 1014.6
20260510030733 11 64 0.0 0.0 0.00 0.00 0.00 98 1014.4
20260510030225 11 64 0.0 0.0 0.00 0.00 0.00 98 1014.6
20260510025722 11 64 0.0 0.0 0.00 0.00 0.00 98 1014.3
20260510025220 11 64 0.0 0.0 0.00 0.00 0.00 98 1014.5
20260510024716 11 64 0.0 0.0 0.00 0.00 0.00 98 1014.4
20260510024212 11 57 0.0 0.0 0.00 0.00 0.00 98 1014.4
20260510023708 11 58 0.0 0.0 0.00 0.00 0.00 97 1014.3
20260510023206 11 57 0.0 0.0 0.00 0.00 0.00 97 1014.4
20260510022701 11 57 0.0 0.0 0.00 0.00 0.00 97 1013.9
20260510022156 12 57 0.0 0.0 0.00 0.00 0.00 97 1014.2
20260510021651 12 58 0.0 0.0 0.00 0.00 0.00 96 1014.1
20260510021149 12 354 0.0 0.0 0.00 0.00 0.00 96 1014.1
20260510020643 12 72 0.0 0.0 0.00 0.00 0.00 95 1014.3
20260510020139 12 72 0.0 0.0 0.00 0.00 0.00 95 1014.0
20260510015636 12 73 0.0 0.0 0.00 0.00 0.00 94 1013.9
20260510015133 12 72 0.0 0.0 0.00 0.00 0.00 94 1013.8
20260510014633 12 72 0.0 0.0 0.00 0.00 0.00 94 1013.9
20260510014131 12 72 0.0 0.0 0.00 0.00 0.00 94 1013.7
20260510013630 12 72 0.0 0.0 0.00 0.00 0.00 94 1013.6
20260510013126 13 73 0.0 0.0 0.00 0.00 0.00 93 1013.4
20260510012621 13 73 0.0 1.6 0.00 0.00 0.00 93 1013.2
20260510012118 13 72 0.0 0.0 0.00 0.00 0.00 92 1013.4
20260510011616 13 72 0.0 0.0 0.00 0.00 0.00 91 1013.1
20260510011112 13 72 0.0 0.0 0.00 0.00 0.00 91 1013.0
20260510010609 13 72 0.0 0.0 0.00 0.00 0.00 91 1012.9
20260510010106 13 45 1.6 1.6 0.00 0.00 0.00 90 1012.6
20260510005601 13 49 0.0 0.0 0.00 0.00 0.00 90 1012.9
20260510005059 14 49 0.0 0.0 0.00 0.00 0.00 89 1012.7
20260510004557 14 49 0.0 0.0 0.00 0.00 0.00 89 1012.7
20260510004055 15 39 0.0 1.6 0.00 0.00 0.00 88 1012.6
20260510003551 15 39 0.0 0.0 0.00 0.00 0.00 87 1012.5
20260510003047 15 38 0.0 0.0 0.00 0.00 0.00 85 1012.4
20260510002542 15 37 0.0 0.0 0.00 0.00 0.00 85 1012.3
20260510002040 16 37 0.0 0.0 0.00 0.00 0.00 84 1012.3
20260510001537 16 359 0.0 0.0 0.00 0.00 0.00 84 1012.3
20260510001036 16 84 0.0 0.0 0.00 0.00 0.00 81 1012.2
20260510000536 16 57 0.0 0.0 0.00 0.00 0.00 81 1011.8
20260510000033 16 58 0.0 0.0 0.00 0.00 0.00 80 1012.0
20260509235530 16 58 0.0 1.6 0.00 0.00 0.00 79 1011.9
20260509235026 17 58 0.0 1.6 0.00 0.00 0.00 78 1011.7
20260509234522 17 213 0.0 0.0 0.00 0.00 0.00 74 1011.9
20260509234021 18 213 0.0 1.6 0.00 0.00 0.00 74 1011.8
20260509233518 18 0 0.0 0.0 0.00 0.00 0.00 66 1011.6
20260509233015 19 359 0.0 0.0 0.00 0.00 0.00 70 1011.7
20260509232512 20 33 0.0 1.6 0.00 0.00 0.00 66 1011.9
20260509232008 20 33 1.6 6.4 0.00 0.00 0.00 56 1011.6
20260509231505 20 32 4.8 6.4 0.00 0.00 0.00 57 1011.9
20260509231002 20 47 3.2 3.2 0.00 0.00 0.00 66 1011.5
20260509230459 20 150 0.0 0.0 0.00 0.00 0.00 61 1011.7
20260509225955 21 163 0.0 1.6 0.00 0.00 0.00 55 1011.5
20260509225451 21 163 0.0 1.6 0.00 0.00 0.00 55 1011.5
20260509224947 21 184 3.2 3.2 0.00 0.00 0.00 54 1011.6
20260509224443 21 19 3.2 3.2 0.00 0.00 0.00 53 1011.7
20260509223940 21 91 3.2 3.2 0.00 0.00 0.00 52 1011.7
20260509223436 21 184 1.6 11.3 0.00 0.00 0.00 52 1011.9
20260509222934 21 114 1.6 3.2 0.00 0.00 0.00 51 1011.8
20260509222429 21 192 4.8 4.8 0.00 0.00 0.00 52 1012.0
20260509221925 21 101 1.6 1.6 0.00 0.00 0.00 51 1012.0
20260509221422 21 224 3.2 9.7 0.00 0.00 0.00 52 1011.9
20260509220918 21 68 4.8 9.7 0.00 0.00 0.00 52 1012.0
20260509220414 21 10 4.8 11.3 0.00 0.00 0.00 52 1012.0
20260509215910 21 104 3.2 6.4 0.00 0.00 0.00 55 1011.9
20260509215401 22 105 3.2 4.8 0.00 0.00 0.00 49 1011.9
20260509214859 22 292 4.8 4.8 0.00 0.00 0.00 49 1012.3
20260509214355 22 204 4.8 9.7 0.00 0.00 0.00 49 1012.2
20260509213852 22 139 4.8 4.8 0.00 0.00 0.00 49 1012.0
20260509213347 22 238 0.0 3.2 0.00 0.00 0.00 52 1012.2
20260509212845 21 134 3.2 6.4 0.00 0.00 0.00 50 1012.0
20260509212342 21 154 8.0 12.9 0.00 0.00 0.00 50 1012.0
20260509211838 21 169 4.8 9.7 0.00 0.00 0.00 48 1012.0
20260509211334 21 241 0.0 4.8 0.00 0.00 0.00 49 1012.0
20260509210830 21 155 0.0 3.2 0.00 0.00 0.00 50 1011.8
20260509210328 21 120 1.6 3.2 0.00 0.00 0.00 50 1012.0
20260509205828 21 111 3.2 9.7 0.00 0.00 0.00 48 1011.8
20260509205323 21 120 3.2 3.2 0.00 0.00 0.00 49 1012.0
20260509204820 21 198 3.2 4.8 0.00 0.00 0.00 48 1011.8
20260509204316 21 99 3.2 6.4 0.00 0.00 0.00 48 1011.7
20260509203812 21 189 6.4 6.4 0.00 0.00 0.00 48 1011.9
20260509203309 20 202 3.2 6.4 0.00 0.00 0.00 49 1011.9
20260509202805 20 343 3.2 9.7 0.00 0.00 0.00 49 1011.7
20260509202306 20 150 0.0 4.8 0.00 0.00 0.00 50 1011.5
20260509201800 21 141 3.2 3.2 0.00 0.00 0.00 47 1011.5
20260509201258 21 161 1.6 6.4 0.00 0.00 0.00 47 1011.4
20260509200754 21 226 3.2 4.8 0.00 0.00 0.00 46 1011.5
20260509200249 21 226 4.8 4.8 0.00 0.00 0.00 45 1011.4
20260509195747 21 203 1.6 4.8 0.00 0.00 0.00 46 1011.4
20260509195242 21 204 1.6 4.8 0.00 0.00 0.00 48 1011.4
20260509194742 21 287 1.6 3.2 0.00 0.00 0.00 49 1011.5
20260509194238 21 41 3.2 4.8 0.00 0.00 0.00 46 1011.4
20260509193735 21 101 1.6 3.2 0.00 0.00 0.00 46 1011.5
20260509193235 21 80 3.2 9.7 0.00 0.00 0.00 46 1011.5
20260509192731 22 124 0.0 4.8 0.00 0.00 0.00 46 1011.6
20260509192226 22 315 3.2 12.9 0.00 0.00 0.00 50 1011.8
20260509191722 22 69 1.6 4.8 0.00 0.00 0.00 49 1011.7
20260509191219 21 149 3.2 6.4 0.00 0.00 0.00 47 1011.8
20260509190715 21 191 3.2 4.8 0.00 0.00 0.00 44 1011.6
20260509190212 21 272 4.8 4.8 0.00 0.00 0.00 46 1011.8
20260509185710 21 71 0.0 6.4 0.00 0.00 0.00 52 1011.6
20260509185205 22 179 4.8 11.3 0.00 0.00 0.00 47 1011.8
20260509184703 21 212 1.6 3.2 0.00 0.00 0.00 52 1011.7
20260509184200 21 212 1.6 3.2 0.00 0.00 0.00 47 1011.6
20260509183656 21 212 1.6 4.8 0.00 0.00 0.00 49 1011.5
20260509183151 21 207 1.6 1.6 0.00 0.00 0.00 50 1011.6
20260509182647 21 232 3.2 6.4 0.00 0.00 0.00 48 1011.6
20260509182145 21 215 4.8 6.4 0.00 0.00 0.00 48 1011.7
20260509181643 21 201 1.6 3.2 0.00 0.00 0.00 47 1011.6
20260509181140 21 201 3.2 6.4 0.00 0.00 0.00 51 1011.8
20260509180637 21 202 1.6 1.6 0.00 0.00 0.00 51 1011.9
20260509180133 21 201 1.6 9.7 0.00 0.00 0.00 51 1011.7
20260509175629 22 48 8.0 9.7 0.00 0.00 0.00 48 1011.8
20260509175126 21 214 3.2 4.8 0.00 0.00 0.00 49 1011.7
20260509174622 22 142 1.6 4.8 0.00 0.00 0.00 50 1011.9
20260509174117 22 141 3.2 4.8 0.00 0.00 0.00 51 1011.8
20260509173613 22 141 0.0 1.6 0.00 0.00 0.00 51 1011.8
20260509173109 20 141 1.6 4.8 0.00 0.00 0.00 58 1012.0
20260509172606 20 141 0.0 3.2 0.00 0.00 0.00 56 1012.0
20260509172102 20 141 1.6 1.6 0.00 0.00 0.00 56 1011.9
20260509171558 20 141 1.6 3.2 0.00 0.00 0.00 56 1011.9
20260509171054 20 141 1.6 3.2 0.00 0.00 0.00 54 1012.0
20260509170550 20 142 1.6 1.6 0.00 0.00 0.00 58 1012.3
20260509170046 19 133 1.6 3.2 0.00 0.00 0.00 56 1012.3
20260509165545 19 131 0.0 6.4 0.00 0.00 0.00 56 1012.4
20260509165040 19 150 0.0 6.4 0.00 0.00 0.00 56 1012.4